User: anonymous   Login
Location: Marseilles
(40.7010°N, 83.3930°W)
Time: 00:06:39
(UTC-04:00)
Language:

Cosmos 1459 Rocket - Orbit

View from above orbital plane
View from above orbital plane
View from above satellite
View from above satellite

Ground track
Ground track

The orbit data is extracted from the following two-line orbital elements,

1 14059U 83042B   18170.44732778 +.00000098 +00000-0 +81005-4 0  9990
2 14059 082.9705 149.3350 0041633 317.0098 042.7809 13.78628797766098
Epoch (UTC): 19 June 2018 10:44:09
Eccentricity: 0.0041633
inclination: 82.9705°
perigee height: 938 km
apogee height: 999 km
right ascension of ascending node: 149.3350°
argument of perigee: 317.0098°
revolutions per day: 13.78628797
mean anomaly at epoch: 42.7809°
orbit number at epoch: 76609

The dashed part of the orbit path shows where the satellite is in the earth's shadow,  

DLR